Regional Weather Roundup
Issued by NWS

Home | Current Version | Previous Version | Graphics & Text | Print | Product List | Glossary On
Versions: 1 2 3 4 5 6 7 8 9 10 11 12 13 14 15 16 17 18 19 20 21 22 23 24 25 26 27 28 29 30 31 32 33 34 35 36 37 38 39 40 41 42 43 44 45 46 47 48 49 50
550
ASUS43 KDTX 021401
RWRMI
MICHIGAN HOURLY REGIONAL WEATHER ROUNDUP
NATIONAL WEATHER SERVICE DETROIT/PONTIAC MI
1000 AM EDT MON MAY 02 2016

NOTE: "FAIR" INDICATES FEW OR NO CLOUDS BELOW 12,000 FEET WITH NO
SIGNIFICANT WEATHER AND/OR OBSTRUCTION TO VISIBILITY.

MIZ047>049-052>055-059>063-066>070-074>076-081>083-021500-
SOUTHEAST LOWER MICHIGAN

CITY           SKY/WX    TMP DP  RH WIND       PRES   REMARKS
ADRIAN         CLOUDY    47  45  93 NE8       30.02S
ALMA           CLOUDY    46  39  79 NE13      30.06F
ANN ARBOR      CLOUDY    46  44  93 N10       30.02F FOG
BAD AXE        CLOUDY    45  40  81 NE9       30.06S
CARO           CLOUDY    44  41  88 NE3       30.04S
DETROIT CITY   CLOUDY    47  44  90 N7        30.03R FOG
DETROIT        CLOUDY    48  46  93 N7        30.03S FOG
FLINT          CLOUDY    47  42  83 NE8       30.05S
GROSSE ILE     CLOUDY    48  46  93 N5        30.01S FOG
HILLSDALE      CLOUDY    44  44 100 N6        30.01S FOG
HOWELL         CLOUDY    43  43  99 N5        30.04R FOG

CITY           SKY/WX    TMP DP  RH WIND       PRES   REMARKS
JACKSON        CLOUDY    45  43  93 N8        30.02F FOG
LAMBERTVILLE   CLOUDY    49  47  92 CALM      30.01F
LANSING        CLOUDY    44  40  85 NE6       30.06R
LAPEER         CLOUDY    44  42  95 NE3       30.05R
MASON          CLOUDY    43  42  97 NE6       30.04S FOG
MONROE         CLOUDY    49  48  95 N7        30.01S
MT. CLEMENS    CLOUDY    46  46 100 N12       30.01F FOG
PONTIAC        DRIZZLE   45  43  93 N7        30.02R FOG
PORT HOPE        N/A     42  38  85 NE9       30.05R
PORT HURON     CLOUDY    45  43  93 N5        30.03S
TRI CITIES     CLOUDY    47  39  74 NE13      30.07R
MIDLAND        CLOUDY    48  38  69 NE10      30.07R
TROY           CLOUDY    46  45  96 N3        30.05R FOG
SAGINAW HB     CLOUDY    45  41  87 NE9       30.06R
$$
MIZ043>046-050>051-056>058-064>065-071>073-077>080-021500-
SOUTHWEST LOWER MICHIGAN

CITY           SKY/WX    TMP DP  RH WIND       PRES   REMARKS
BATTLE CREEK   CLOUDY    46  42  86 NE12      30.03F
BENTON HARBOR  PTSUNNY   49  41  74 VRB6      30.03S
BIG RAPIDS     SUNNY     52  32  46 E7        30.06R
COLDWATER      CLOUDY    45  44  97 NE8       30.02S
FREMONT        FAIR      51  32  47 E5        30.06S
HOLLAND        SUNNY     50  39  66 NE9       30.05S
GRAND RAPIDS   MOSUNNY   51  40  65 NE10      30.05S
IONIA          CLOUDY    46  39  78 NE15      30.04F
KALAMAZOO      CLOUDY    47  41  80 NE6       30.04S
LUDINGTON      SUNNY     53  34  49 N6        30.08R
MARSHALL       CLOUDY    45  43  95 NE5       30.02F
MOUNT PLEASANT MOSUNNY   49  38  64 NE8       30.05F
MUSKEGON       SUNNY     53  34  48 NE9       30.05F
$$
MIZ016>042-021500-
NORTHERN LOWER MICHIGAN

CITY           SKY/WX    TMP DP  RH WIND       PRES   REMARKS
ALPENA         CLOUDY    48  38  68 N3        30.09S
BEAVER ISLAND  MOSUNNY   52  37  56 NW3       30.08F
BELLAIRE       MOSUNNY   49  35  59 CALM      30.08F
CADILLAC       SUNNY     53  32  45 NE8       30.05S
CHARLEVOIX     CLOUDY    47  39  75 CALM      30.12S
FRANKFORT      SUNNY     53  36  53 CALM      30.09R
GAYLORD        SUNNY     53  31  42 NE3       30.07S
HARBOR SPRINGS CLOUDY    47  34  60 SW3       30.08F
HOUGHTON LAKE  CLOUDY    48  34  58 NE7       30.07S
MANISTEE       SUNNY     54  36  50 NW6       30.08F
OSCODA         CLOUDY    49  38  66 NE10      30.06S
PELLSTON       CLOUDY    53  32  44 NW7       30.09S
ROGERS CITY    SUNNY     47  34  60 N6        30.10S
TRAVERSE CITY  MOSUNNY   50  36  58 NE6       30.07S
$$
MIZ007>008-015-021500-
EASTERN UPPER MICHIGAN

CITY           SKY/WX    TMP DP  RH WIND       PRES   REMARKS
KINROSS          N/A     52  36  54 N7        30.08F
MACKINAC ISLAN SUNNY     51  33  50 W3        30.08S
NEWBERRY       SUNNY     52  36  54 N5        30.08F
S. S. MARIE    CLOUDY    54  34  46 NW3       30.08S
MUNISING         N/A     44  37  76 N9        30.12S
$$
MIZ004>006-011>014-085-021500-
CENTRAL UPPER MICHIGAN

CITY           SKY/WX    TMP DP  RH WIND       PRES   REMARKS
MANISTIQUE     SUNNY     53  36  52 NW7       30.09S
ESCANABA       SUNNY     54  36  50 NW6       30.10S
MENOMINEE      SUNNY     52  34  50 N6        30.11R
SAWYER-GWINN   SUNNY     50  34  53 NE8       30.13F
$$
MIZ001>003-009>011-084-021500-
WESTERN UPPER MICHIGAN

CITY           SKY/WX    TMP DP  RH WIND       PRES   REMARKS
IRON MOUNTAIN  SUNNY     52  32  46 N7        30.10F
HOUGHTON       SUNNY     51  32  48 W6        30.12F
COPPER HARBOR    N/A     42  36  79 N8        30.13F
IRONWOOD         N/A     48  37  66 CALM      30.10S
$$

ABBREVIATIONS USED IN REMARKS
   TC - TEMPERATURE IN CELSIUS
  WCI - WIND CHILL INDEX
   HX - HEAT INDEX
  VSB - VISIBILITY





USA.gov is the U.S. government's official web portal to all federal, state and local government web resources and services.